Terug naar catalogus

COSMOS 1217 DEB

LostHEO
NORAD 26679·DEBRIS·🇷🇺 Russia

Gelanceerd Oct 24, 1980 vanaf Plesetsk Cosmodrome

Loading…

Volgende Passages (komende 24 uur)

TLE

VerouderdSource: Space-Track

Epoch: Dec 7, 2007, 18:24 UTC

1 26679U 80085F   07341.76669680 +.00000325 +00000-0 +10000-3 0  9998
2 26679 068.3768 212.7218 5963959 094.3217 331.6871 02.08156370076346

Volg COSMOS 1217 DEB in realtime met AllMySat

Download on the App Store